timestamp,wind_dir_avg,wind_spd_avg,wind_spd_max_dir,wind_spd_gust,battery_voltage,lat,long
2022-02-17 00:04:00+00:00,272.0,8.16,283.0,10.79,12.41,47.59359,-54.27349
2022-02-17 00:14:00+00:00,284.0,8.38,292.0,11.09,12.33,47.59359,-54.27349
2022-02-17 00:24:00+00:00,284.0,9.02,286.0,10.74,12.33,47.59359,-54.27349
2022-02-17 00:34:00+00:00,278.0,8.87,283.0,10.61,12.33,47.59359,-54.27349
2022-02-17 00:44:00+00:00,282.0,8.47,283.0,10.6,12.33,47.59359,-54.27349
2022-02-17 00:54:00+00:00,276.0,7.62,280.0,10.01,12.33,47.59359,-54.27349
2022-02-17 01:04:00+00:00,263.0,4.47,264.0,9.15,12.33,47.59359,-54.27349
2022-02-17 01:14:01+00:00,265.0,7.24,275.0,10.25,12.33,47.59359,-54.27349
2022-02-17 01:24:01+00:00,254.0,3.01,248.0,4.58,12.33,47.59359,-54.27349
2022-02-17 01:34:01+00:00,249.0,6.64,253.0,9.35,12.33,47.59359,-54.27349
2022-02-17 01:44:01+00:00,253.0,5.3,262.0,8.99,12.33,47.59359,-54.27349
2022-02-17 01:54:01+00:00,242.0,3.34,244.0,4.5,12.33,47.59359,-54.27349
2022-02-17 02:04:01+00:00,244.0,4.68,245.0,5.72,12.33,47.59359,-54.27349
2022-02-17 02:14:01+00:00,274.0,4.26,272.0,8.49,12.33,47.59359,-54.27349
2022-02-17 02:24:01+00:00,256.0,6.57,264.0,9.53,12.33,47.59359,-54.27349
2022-02-17 02:34:01+00:00,254.0,4.91,252.0,8.58,12.33,47.59359,-54.27349
2022-02-17 02:44:01+00:00,261.0,4.01,267.0,6.19,12.33,47.59359,-54.27349
2022-02-17 02:54:01+00:00,270.0,4.32,271.0,5.82,12.33,47.59359,-54.27349
2022-02-17 03:04:01+00:00,225.0,3.76,230.0,5.06,12.33,47.59359,-54.27349
2022-02-17 03:14:00+00:00,259.0,4.44,262.0,5.51,12.25,47.59359,-54.27349
2022-02-17 03:24:00+00:00,236.0,5.18,243.0,6.22,12.25,47.59359,-54.27349
2022-02-17 03:34:00+00:00,237.0,5.97,237.0,7.42,12.25,47.59359,-54.27349
2022-02-17 03:44:00+00:00,235.0,6.71,233.0,7.66,12.25,47.59359,-54.27349
2022-02-17 03:54:00+00:00,233.0,6.02,233.0,7.26,12.25,47.59359,-54.27349
2022-02-17 04:04:00+00:00,232.0,6.8,225.0,7.95,12.25,47.59359,-54.27349
2022-02-17 04:14:00+00:00,232.0,7.23,231.0,8.4,12.25,47.59359,-54.27349
2022-02-17 04:24:00+00:00,245.0,6.22,248.0,6.95,12.25,47.59359,-54.27349
2022-02-17 04:34:00+00:00,238.0,5.16,240.0,6.53,12.25,47.59359,-54.27349
2022-02-17 04:44:00+00:00,237.0,5.63,241.0,7.19,12.25,47.59359,-54.27349
2022-02-17 04:54:00+00:00,213.0,5.64,232.0,7.5,12.25,47.59359,-54.27349
2022-02-17 05:04:00+00:00,203.0,5.78,208.0,6.84,12.25,47.59359,-54.27349
2022-02-17 05:14:01+00:00,224.0,7.85,238.0,12.68,12.17,47.59359,-54.27349
2022-02-17 05:24:01+00:00,198.0,7.58,193.0,8.67,12.17,47.59359,-54.27349
2022-02-17 05:34:01+00:00,227.0,8.62,240.0,15.33,12.17,47.59359,-54.27349
2022-02-17 05:44:01+00:00,244.0,14.19,249.0,15.83,12.17,47.59359,-54.27349
2022-02-17 05:54:01+00:00,238.0,12.44,242.0,15.07,12.17,47.59359,-54.27349
2022-02-17 06:04:01+00:00,228.0,9.63,247.0,14.71,12.17,47.59359,-54.27349
2022-02-17 06:14:00+00:00,231.0,11.96,238.0,15.26,12.17,47.59359,-54.27349
2022-02-17 06:24:00+00:00,218.0,6.83,229.0,9.85,12.17,47.59359,-54.27349
2022-02-17 06:34:00+00:00,234.0,10.03,242.0,14.74,12.17,47.59359,-54.27349
2022-02-17 06:44:00+00:00,231.0,6.13,233.0,9.35,12.17,47.59359,-54.27349
2022-02-17 06:54:00+00:00,210.0,5.48,217.0,7.36,12.17,47.59359,-54.27349
2022-02-17 07:04:00+00:00,234.0,14.14,235.0,16.91,12.17,47.59359,-54.27349
2022-02-17 07:14:01+00:00,229.0,14.96,229.0,17.55,12.17,47.59359,-54.27349
2022-02-17 07:24:01+00:00,224.0,14.07,228.0,17.29,12.17,47.59359,-54.27349
2022-02-17 07:34:01+00:00,232.0,14.48,226.0,16.9,12.17,47.59359,-54.27349
2022-02-17 07:44:01+00:00,229.0,13.59,233.0,16.51,12.17,47.59359,-54.27349
2022-02-17 07:54:01+00:00,226.0,15.87,229.0,17.8,12.17,47.59359,-54.27349
2022-02-17 08:04:01+00:00,223.0,13.92,220.0,15.89,12.17,47.59359,-54.27349
2022-02-17 09:14:01+00:00,224.0,16.35,219.0,20.46,12.17,47.59359,-54.27349
2022-02-17 09:24:01+00:00,221.0,15.35,221.0,20.46,12.17,47.59359,-54.27349
2022-02-17 09:34:01+00:00,226.0,14.82,235.0,17.94,12.17,47.59359,-54.27349
2022-02-17 09:44:01+00:00,227.0,18.06,226.0,20.89,12.17,47.59359,-54.27349
2022-02-17 09:54:01+00:00,224.0,18.94,218.0,22.76,12.17,47.59359,-54.27349
2022-02-17 10:04:01+00:00,223.0,16.11,230.0,20.61,12.17,47.59359,-54.27349
2022-02-17 10:14:00+00:00,221.0,15.46,229.0,19.96,12.17,47.59359,-54.27349
2022-02-17 10:24:00+00:00,219.0,15.42,231.0,20.37,12.17,47.59359,-54.27349
2022-02-17 10:34:00+00:00,214.0,14.84,232.0,19.81,12.17,47.59359,-54.27349
2022-02-17 10:44:00+00:00,220.0,19.18,220.0,24.35,12.17,47.59359,-54.27349
2022-02-17 10:54:00+00:00,223.0,18.74,229.0,23.14,12.17,47.59359,-54.27349
2022-02-17 11:04:00+00:00,220.0,17.59,228.0,22.54,12.17,47.59359,-54.27349
2022-02-17 11:14:01+00:00,208.0,14.91,224.0,20.52,12.17,47.59359,-54.27349
2022-02-17 11:24:01+00:00,222.0,16.74,232.0,22.33,12.17,47.59359,-54.27349
2022-02-17 11:34:01+00:00,212.0,15.48,227.0,19.44,12.17,47.59359,-54.27349
2022-02-17 11:44:01+00:00,210.0,14.54,230.0,20.34,12.17,47.59359,-54.27349
2022-02-17 11:54:01+00:00,219.0,17.32,232.0,22.35,12.17,47.59359,-54.27349
2022-02-17 12:04:01+00:00,219.0,16.7,233.0,23.05,12.17,47.59359,-54.27349
2022-02-17 12:14:01+00:00,209.0,16.0,231.0,20.8,12.17,47.59359,-54.27349
2022-02-17 12:24:01+00:00,207.0,15.23,205.0,19.89,12.17,47.59359,-54.27349
2022-02-17 12:34:01+00:00,208.0,16.94,216.0,23.22,12.17,47.59359,-54.27349
2022-02-17 12:44:01+00:00,217.0,17.44,227.0,24.2,12.17,47.59359,-54.27349
2022-02-17 12:54:01+00:00,222.0,18.36,227.0,24.28,12.17,47.59359,-54.27349
2022-02-17 13:04:01+00:00,224.0,18.61,228.0,23.47,12.17,47.59359,-54.27349
2022-02-17 14:14:00+00:00,227.0,19.99,225.0,23.74,12.57,47.59359,-54.27349
2022-02-17 14:24:00+00:00,229.0,19.32,242.0,24.23,12.57,47.59359,-54.27349
2022-02-17 14:34:00+00:00,226.0,18.46,224.0,24.03,12.57,47.59359,-54.27349
2022-02-17 14:44:00+00:00,226.0,18.44,224.0,24.81,12.57,47.59359,-54.27349
2022-02-17 14:54:00+00:00,228.0,17.01,227.0,21.52,12.57,47.59359,-54.27349
2022-02-17 15:04:00+00:00,231.0,16.3,230.0,21.09,12.57,47.59359,-54.27349
2022-02-17 15:14:00+00:00,228.0,14.84,236.0,19.19,12.41,47.59359,-54.27349
2022-02-17 15:24:00+00:00,233.0,17.31,235.0,21.07,12.41,47.59359,-54.27349
2022-02-17 15:34:00+00:00,232.0,17.04,226.0,21.13,12.41,47.59359,-54.27349
2022-02-17 15:44:00+00:00,229.0,14.77,227.0,17.75,12.41,47.59359,-54.27349
2022-02-17 15:54:00+00:00,228.0,16.13,226.0,20.55,12.41,47.59359,-54.27349
2022-02-17 16:04:00+00:00,233.0,13.78,230.0,16.05,12.41,47.59359,-54.27349
2022-02-17 16:14:00+00:00,229.0,15.49,220.0,19.45,12.25,47.59359,-54.27349
2022-02-17 16:24:00+00:00,230.0,15.18,223.0,17.66,12.25,47.59359,-54.27349
2022-02-17 16:34:00+00:00,231.0,14.67,235.0,17.72,12.25,47.59359,-54.27349
2022-02-17 16:44:00+00:00,230.0,15.02,229.0,17.55,12.25,47.59359,-54.27349
2022-02-17 16:54:00+00:00,232.0,15.02,228.0,17.78,12.25,47.59359,-54.27349
2022-02-17 17:04:00+00:00,233.0,15.55,240.0,20.46,12.25,47.59359,-54.27349
2022-02-17 17:14:01+00:00,237.0,16.04,245.0,21.88,12.49,47.59359,-54.27349
2022-02-17 17:24:01+00:00,236.0,14.62,231.0,16.43,12.49,47.59359,-54.27349
2022-02-17 17:34:01+00:00,234.0,14.94,233.0,16.74,12.49,47.59359,-54.27349
2022-02-17 17:44:01+00:00,236.0,14.93,233.0,17.06,12.49,47.59359,-54.27349
2022-02-17 17:54:01+00:00,236.0,14.54,235.0,16.37,12.49,47.59359,-54.27349
2022-02-17 18:04:01+00:00,237.0,14.98,239.0,17.07,12.49,47.59359,-54.27349
2022-02-17 18:14:00+00:00,243.0,16.94,253.0,21.86,13.29,47.59359,-54.27349
2022-02-17 18:24:00+00:00,241.0,15.86,236.0,18.58,13.29,47.59359,-54.27349
2022-02-17 18:34:00+00:00,241.0,16.27,254.0,21.57,13.29,47.59359,-54.27349
2022-02-17 18:44:00+00:00,240.0,15.14,249.0,21.82,13.29,47.59359,-54.27349
2022-02-17 18:54:00+00:00,236.0,14.48,237.0,16.43,13.29,47.59359,-54.27349
2022-02-17 19:04:00+00:00,237.0,15.24,237.0,18.26,13.29,47.59359,-54.27349
2022-02-17 19:14:00+00:00,237.0,15.06,238.0,16.89,13.13,47.59359,-54.27349
2022-02-17 19:24:00+00:00,236.0,15.62,238.0,17.7,13.13,47.59359,-54.27349
2022-02-17 19:34:00+00:00,238.0,14.97,239.0,16.69,13.13,47.59359,-54.27349
2022-02-17 19:44:00+00:00,233.0,15.26,231.0,17.82,13.13,47.59359,-54.27349
2022-02-17 19:54:00+00:00,234.0,15.83,232.0,17.28,13.13,47.59359,-54.27349
2022-02-17 20:04:00+00:00,232.0,16.17,242.0,19.96,13.13,47.59359,-54.27349
2022-02-17 20:14:00+00:00,233.0,15.91,224.0,18.14,12.73,47.59359,-54.27349
2022-02-17 20:24:00+00:00,236.0,14.83,237.0,16.67,12.73,47.59359,-54.27349
2022-02-17 20:34:00+00:00,233.0,13.32,236.0,16.24,12.73,47.59359,-54.27349
2022-02-17 20:44:00+00:00,236.0,15.04,236.0,16.69,12.73,47.59359,-54.27349
2022-02-17 20:54:00+00:00,235.0,15.7,230.0,17.16,12.73,47.59359,-54.27349
2022-02-17 21:04:00+00:00,233.0,16.31,236.0,18.34,12.73,47.59359,-54.27349
2022-02-17 21:14:00+00:00,233.0,15.75,226.0,17.69,12.49,47.59359,-54.27349
2022-02-17 21:24:00+00:00,232.0,16.24,228.0,18.69,12.49,47.59359,-54.27349
2022-02-17 21:34:00+00:00,231.0,16.24,226.0,18.41,12.49,47.59359,-54.27349
2022-02-17 21:44:00+00:00,233.0,15.94,232.0,17.62,12.49,47.59359,-54.27349
2022-02-17 21:54:00+00:00,235.0,15.69,234.0,17.54,12.49,47.59359,-54.27349
2022-02-17 22:04:00+00:00,234.0,15.8,232.0,17.91,12.49,47.59359,-54.27349
2022-02-17 22:14:00+00:00,233.0,16.13,245.0,19.22,12.41,47.59359,-54.27349
2022-02-17 22:24:00+00:00,236.0,15.75,225.0,17.95,12.41,47.59359,-54.27349
2022-02-17 22:34:00+00:00,230.0,16.4,232.0,19.78,12.41,47.59359,-54.27349
2022-02-17 22:44:00+00:00,231.0,15.91,235.0,21.88,12.41,47.59359,-54.27349
2022-02-17 22:54:00+00:00,230.0,15.91,232.0,18.08,12.41,47.59359,-54.27349
2022-02-17 23:04:00+00:00,232.0,16.32,219.0,19.22,12.41,47.59359,-54.27349
2022-02-17 23:14:01+00:00,235.0,16.0,233.0,17.73,12.33,47.59359,-54.27349
2022-02-17 23:24:01+00:00,234.0,15.93,234.0,17.88,12.33,47.59359,-54.27349
2022-02-17 23:34:01+00:00,232.0,15.97,227.0,18.06,12.33,47.59359,-54.27349
2022-02-17 23:44:01+00:00,236.0,16.07,223.0,18.7,12.33,47.59359,-54.27349
2022-02-17 23:54:01+00:00,242.0,14.93,244.0,17.4,12.33,47.59359,-54.27349
